Regional Weather Roundup
Issued by NWS Newport/Morehead, NC

Current Version | Previous Version | Text Only | Print | Product List | Glossary Off
Versions: 1 2 3 4 5 6 7 8 9 10 11 12 13 14 15 16 17 18 19 20 21 22 23 24 25 26 27 28 29 30 31 32 33 34 35 36 37 38 39 40 41 42 43 44 45 46 47 48 49 50
176 ASUS42 KMHX 261913 RWRMHX WEATHER ROUNDUP FOR EASTERN NORTH CAROLINA NATIONAL WEATHER SERVICE NEWPORT/MOREHEAD CITY NC 300 PM EDT THU APR 26 2018 NOTE: "FAIR" INDICATES FEW OR NO CLOUDS BELOW 12,000 FEET WITH NO SIGNIFICANT WEATHER AND/OR OBSTRUCTIONS TO VISIBILITY NCZ015>017-031-032-045>047-102-103-262000- NORTH COAST CITY SKY/WX TMP DP RH WIND PRES REMARKS EDENTON CLOUDY 69 57 66 E6 29.89S ELIZABETH CITY FAIR 69 52 54 E10 29.90R KITTY HAWK MOCLDY 62 49 63 E6 29.90F MANTEO CLOUDY 62 52 69 E7 29.91F $$ NCZ045>047-081-094-103-104-262000- CENTRAL COAST CITY SKY/WX TMP DP RH WIND PRES REMARKS FRISCO FAIR 73 59 61 SE9 29.90F $$ NCZ095-097-098-100-101-262000- SOUTHERN COAST CITY SKY/WX TMP DP RH WIND PRES REMARKS BEAUFORT FAIR 72 59 63 S10 29.88F CEDAR ISLAND NOT AVBL JACKSONVILLE PTSUNNY 73 57 57 S15 29.87S PINEY ISLAND NOT AVBL WILMINGTON FAIR 73 58 59 SE12G20 29.86F $$ NCZ011>013-027>030-043-044-078>080-089-090>093-098-262000- COASTAL PLAIN CITY SKY/WX TMP DP RH WIND PRES REMARKS AHOSKIE FAIR 71 56 59 S6 29.87F CLINTON FAIR 78 59 52 CALM 29.85F ELIZABETHTOWN FAIR 77 56 49 MISG 29.85S GOLDSBORO LGT RAIN 77 55 47 W8 29.84F GREENVILLE FAIR 75 55 50 W5 29.89S HAVELOCK PTSUNNY 77 62 59 S10 29.88S KENANSVILLE CLOUDY 77 55 47 SE6 29.85F KINSTON CLOUDY 75 55 50 CALM 29.86F NEW BERN CLOUDY 76 57 51 S7 29.87F RICHLANDS CLOUDY 78 57 48 S12 29.86F ROCKY MOUNT CLOUDY 74 56 53 SE6 29.87S WASHINGTON CLOUDY 76 55 47 CALM 29.87S WHITEVILLE FAIR 76 56 48 S9G16 29.85S $$ AMZ130-135-150-152-154-156-158-170-250-252-270-ANZ085-086-088-633-658-670-262000- MARINE OBSERVATIONS STATION/POSITION TIME TEMP WIND PRES WAVE SWELL AIR SEA DIR/SP/G HT/PER HT/PER (UTC) (F) (DEG/KT/KT) (MB) (FT/S) (FT/S) CHESAPEAKE LIGHT NOT AVBL 64 E VA BEACH 1850 55 54 20/ 2/ 4 1013.4 7/10 7/10 DUCK 1848 61 53 90/ 7/ 8 1012.4 2 E DUCK 1900 55 N/A 4/10 2/11 OREGON INLET 1842 60 60 90/ 8/ 11 1012.6 13E OREGON INLT 1848 57 N/A 5/11 5/11 HATTERAS CG 1848 67 68 110/ 8/ 11 1012.2 DIAMOND BUOY 1900 71 71 180/ 8/ 10 1012.6 CAPE LOOKOUT 1900 110/ 5/ 6 1012.4 BEAUFORT LAB 1848 71 66 150/ 9/ 13 1012.3 30 SE NEW RVR IN 1808 70 68 130/ 4/ 6 1010.8 30 SE NEW RVR IN 1900 69 N/A 5/ 9 2/11 27 SE WRIGHTSVLE 1808 69 67 120/ 6/ 8 1012.1 5 SE WRIGHTSVLE 1808 66 65 150/ 8/ 10 1011.6 225 S CAPE HAT 1900 73 74 220/ 12/ 16 1013.5 41 SE CHARLESTON 1850 70 210/ 10/ 12 1011.8 3/ 9 3/ 9 $$

USA.gov is the U.S. government's official web portal to all federal, state and local government web resources and services.